Lovelock, NV

10:56 AM PDT on October 17, 2017 (GMT -0700)
Derby

Weather History for KLOL - May, 2013

Change the Weather History Date:

Sunday, May 12, 2013

  Actual Average Record
Temperature  
Mean Temperature 66 °F -  
Max Temperature 91 °F 74 °F 92 °F (1959)
Min Temperature 41 °F 40 °F 23 °F (2004)
Cooling Degree Days 1    
Growing Degree Days 16 (Base 50)    
Moisture  
Dew Point 29 °F    
Average Humidity 24    
Maximum Humidity 53    
Minimum Humidity 9    
Precipitation  
Precipitation 0.00 in - - ()
Sea Level Pressure  
Sea Level Pressure 30.07 in    
Wind  
Wind Speed 6 mph (WSW)    
Max Wind Speed 17 mph    
Max Gust Speed 25 mph    
Visibility 10 miles    
Events      
Averages and records for this station are not official NWS values.
T = Trace of Precipitation, MM = Missing Value Source: NWS Daily Summary

Daily Weather History Graph

Daily Weather History Graph

Search for Another Location

Airport or City:

Trip Planner

Search our weather history database for the weather conditions in past years. The results will help you decide how hot, cold, wet, or windy it might be!

Date:

Astronomy

May. 12, 2013 Rise Set
Actual Time 5:41 AM PDT 8:00 PM PDT
Civil Twilight 5:10 AM PDT 8:30 PM PDT
Nautical Twilight 4:33 AM PDT 9:08 PM PDT
Astronomical Twilight 3:52 AM PDT 9:50 PM PDT
Moon 7:40 AM PDT (5/12) 10:30 PM PDT (5/12)
Length of Visible Light 15h 19m
Length of Day
14h 19m
Waxing Crescent, 7% of the Moon is Illuminated
May 12
Waxing Crescent
May 17
First Quarter
May 24
Full
May 31
Last Quarter
Jun 8
New

Hourly Weather History & Observations

Time (PDT) Temp. Dew Point Humidity Pressure Visibility Wind Dir Wind Speed Gust Speed Precip Events Conditions
12:53 AM 55.9 °F 28.0 °F 34% 30.11 in 10.0 mi East 8.1 mph - N/A   Clear
1:53 AM 52.0 °F 28.9 °F 41% 30.11 in 10.0 mi NW 3.5 mph - N/A   Clear
2:53 AM 48.0 °F 25.0 °F 41% 30.12 in 10.0 mi WNW 5.8 mph - N/A   Clear
3:53 AM 52.0 °F 26.1 °F 37% 30.12 in 10.0 mi Calm Calm - N/A   Clear
4:53 AM 48.0 °F 27.0 °F 44% 30.13 in 10.0 mi East 5.8 mph - N/A   Clear
5:53 AM 41.0 °F 25.0 °F 53% 30.16 in 10.0 mi Calm Calm - N/A   Clear
6:53 AM 55.0 °F 30.9 °F 40% 30.14 in 10.0 mi Calm Calm - N/A   Clear
7:53 AM 64.0 °F 32.0 °F 30% 30.16 in 10.0 mi Calm Calm - N/A   Clear
8:53 AM 72.0 °F 30.9 °F 22% 30.15 in 10.0 mi Calm Calm - N/A   Clear
9:53 AM 80.1 °F 34.0 °F 19% 30.14 in 10.0 mi Variable 3.5 mph - N/A   Clear
10:53 AM 82.0 °F 32.0 °F 16% 30.13 in 10.0 mi Variable 4.6 mph - N/A   Clear
11:53 AM 84.9 °F 30.9 °F 14% 30.12 in 10.0 mi Variable 5.8 mph - N/A   Clear
12:53 PM 87.1 °F 28.9 °F 12% 30.09 in 10.0 mi West 9.2 mph 17.3 mph N/A   Clear
1:53 PM 89.1 °F 30.0 °F 12% 30.07 in 10.0 mi SW 15.0 mph 25.3 mph N/A   Clear
2:53 PM 90.0 °F 28.9 °F 11% 30.04 in 10.0 mi SSW 12.7 mph 23.0 mph N/A   Partly Cloudy
3:53 PM 91.9 °F 26.1 °F 9% 30.01 in 10.0 mi SW 11.5 mph - N/A   Clear
4:53 PM 88.0 °F 24.1 °F 10% 30.01 in 10.0 mi SSW 11.5 mph - N/A   Clear
5:53 PM 89.1 °F 27.0 °F 11% 30.00 in 10.0 mi SW 8.1 mph 24.2 mph N/A   Clear
6:28 PM 89.1 °F 27.0 °F 11% 30.07 in 10.0 mi NW 9.2 mph - N/A   Clear
6:53 PM 86.0 °F 28.9 °F 13% 29.97 in 10.0 mi West 17.3 mph 21.9 mph N/A   Clear
7:53 PM 80.1 °F 32.0 °F 17% 29.98 in 10.0 mi WNW 15.0 mph - N/A   Clear
8:53 PM 77.0 °F 30.9 °F 19% 29.98 in 10.0 mi WNW 15.0 mph - N/A   Clear
9:53 PM 75.9 °F 32.0 °F 20% 30.00 in 10.0 mi North 8.1 mph - N/A   Clear
10:53 PM 68.0 °F 33.1 °F 27% 30.02 in 10.0 mi ESE 6.9 mph - N/A   Clear
11:53 PM 66.9 °F 33.1 °F 28% 30.02 in 10.0 mi East 4.6 mph - N/A   Clear